Location: Morisset
(33.1080°S, 151.4871°E)
Time: 08:54:29
(UTC+00:00)

ALOS - Pass Details

Date: 29 October 2020
Orbit: 684 x 684 km, 97.9° (Epoch: 28 November)

Event Time Altitude Azimuth Distance (km) Brightness Sun altitude
Rises 17:35:24 0° 19° (NNE) 3,036 5.5 -16.5°
Reaches altitude 10° 17:37:38 10° 20° (NNE) 2,129 4.7 -16.1°
Maximum altitude 17:42:16 71° 103° (ESE) 731 2.6 -15.2°
Drops below altitude 10° 17:46:59 10° 187° (S) 2,159 5.1 -14.4°
Sets 17:49:15 0° 189° (S) 3,082 5.9 -13.9°
